Regional Weather Roundup
Issued by NWS

Home | Current Version | Previous Version | Text Only | Print | Product List | Glossary Off
Versions: 1 2 3 4 5 6 7 8 9 10 11 12 13 14 15 16 17 18 19 20 21 22 23 24 25 26 27 28 29 30 31 32 33 34 35 36 37 38 39 40 41 42 43 44 45 46 47 48 49 50

000
ASUS43 KIND 260409
RWRIN

WEATHER ROUNDUP FOR INDIANA
NATIONAL WEATHER SERVICE INDIANAPOLIS IN
1100 PM EST THU DEC 25 2014

NOTE: "FAIR" INDICATES FEW OR NO CLOUDS BELOW 12,000 FEET WITH NO
SIGNIFICANT WEATHER AND/OR OBSTRUCTIONS TO VISIBILITY.

* - STATION DOES NOT REPORT WEATHER SUCH AS PRECIPITATION OR FOG.

+ - STATION NOT QUALITY CONTROLLED BY THE NATIONAL WEATHER SERVICE.
    USE DATA WITH CAUTION...ESPECIALLY DEWPOINT AND RELATIVE
    HUMIDITY OBSERVATIONS.

INZ001>003-010>013-019-020-260500-
NORTHWEST INDIANA

CITY           SKY/WX    TMP DP  RH WIND       PRES   REMARKS
GARY /AIRPORT/ MOCLDY    40  31  70 S8        30.04R
KNOX *+        PTCLDY    37  30  76 S12G17    30.05S
LA PORTE +     MOCLDY    38  34  87 S9        30.06R
MICHIGAN CITY+ CLOUDY    36  30  80 S12       30.04R
MONTICELLO +   PTCLDY    37  33  84 S8        30.05F
RENSSELAER +   MOCLDY    36  36 100 S12       30.05F
VALPARAISO     MOCLDY    36  32  85 S10       30.04F

$$

LMZ046-743>745-260500-
SOUTHERN LAKE MICHIGAN

STATION/POSITION TIME  TEMP WIND        PRES
                       AIR  DIR/SP/G
                 (UTC) (F)  (DEG/KT/KT) (MB)
MICHIGAN CITY    0400   38  150/ 13/ 17   N/A

$$

INZ004-005-014>016-021>024-260500-
NORTH CENTRAL INDIANA

CITY           SKY/WX    TMP DP  RH WIND       PRES   REMARKS
GOSHEN         CLOUDY    36  31  82 S14       30.06F
LOGANSPORT +   PTCLDY    34  30  86 S12       30.09S WCI  25
PERU/GRISSOM   MOCLDY    35  35 100 S7        30.09R WCI  29
ROCHESTER +    MOCLDY    37  34  87 S9        30.09S
SOUTH BEND     CLOUDY    38  32  79 S10       30.07S
WARSAW +       CLOUDY    34  32  93 S6        30.08F WCI  29

$$

INZ006>009-017-018-025>027-260500-
NORTHEAST INDIANA

CITY           SKY/WX    TMP DP  RH WIND       PRES   REMARKS
ANGOLA *+      CLEAR     32  28  86 S5        30.09R WCI  27
AUBURN +       PTCLDY    34  30  86 S3        30.12R
FORT WAYNE     MOCLDY    34  31  88 S8        30.13R WCI  27
HUNTINGTON +   PTCLDY    34  32  92 S7        30.11S WCI  28

$$

INZ028-029-035-036-043>045-051>053-260500-
WEST CENTRAL INDIANA

CITY           SKY/WX    TMP DP  RH WIND       PRES   REMARKS
GREENCASTLE +  CLEAR     32  28  86 S7        30.11R WCI  26
LAFAYETTE      PTCLDY    36  32  85 S9        30.07F
TERRE HAUTE    CLEAR     37  32  82 S8        30.10R

$$

INZ030>032-037>040-046>048-054>057-064-065-260500-
CENTRAL INDIANA

CITY           SKY/WX    TMP DP  RH WIND       PRES   REMARKS
CP ATTERBURY + CLEAR     34  32  93 MISG      30.15R
FRANKFORT +    PTCLDY    34  33  95 SE7       30.10R WCI  28
GREENWOOD *+   CLEAR     34  28  80 S10       30.14  WCI  26
INDIANAPOLIS   CLEAR     32  29  88 SE8       30.12R WCI  25
-EAGLE CREEK   CLEAR     35  30  82 S6        30.12R WCI  30
KOKOMO *+      PTCLDY    34  28  80 S14       30.09S WCI  24
MARION +       PTCLDY    34  31  87 S12       30.11S WCI  25
MT COMFORT *+  CLEAR     36  28  75 S9        30.12S
SHELBYVILLE    CLEAR     37  31  78 S10       30.13S
ZIONSVILLE +   CLEAR     36  30  79 S9        30.11S

$$

INZ033-034-041-042-049-050-058-059-260500-
EAST CENTRAL INDIANA

CITY           SKY/WX    TMP DP  RH WIND       PRES   REMARKS
MUNCIE         PTCLDY    36  31  82 S10       30.11F

$$

INZ060-061-067>069-081>083-085>088-260500-
SOUTHWEST INDIANA

CITY           SKY/WX    TMP DP  RH WIND       PRES   REMARKS
EVANSVILLE     CLEAR     40  33  76 SE7       30.14R
HUNTINGBURG *+ CLEAR     39  30  70 S6        30.15R
WASHINGTON +   CLEAR     37  31  79 S9        30.13S

$$

INZ062-063-066-070>080-084-089>092-260500-
SOUTH CENTRAL AND SOUTHEAST INDIANA

CITY           SKY/WX    TMP DP  RH WIND       PRES   REMARKS
BLOOMINGTON    CLEAR     35  31  85 SE7       30.12R WCI  29

$$




USA.gov is the U.S. government's official web portal to all federal, state and local government web resources and services.